Tel Aviv, Israel

1:55 AM IST on December 10, 2018 (GMT +0200)
Ben Gurion

Weather History for LLBG - December, 2018

Change the Weather History Date:

Friday, December 7, 2018

  Actual Average Record
Temperature  
Mean Temperature 58 °F -  
Max Temperature 63 °F 64 °F 82 °F (1997)
Min Temperature 53 °F 49 °F 45 °F (2015)
Degree Days  
Heating Degree Days 7    
Growing Degree Days 8 (Base 50)    
Moisture  
Dew Point 53 °F    
Average Humidity 85    
Maximum Humidity 100    
Minimum Humidity 68    
Precipitation  
Precipitation 0.87 in - - ()
Sea Level Pressure  
Sea Level Pressure 29.87 in    
Wind  
Wind Speed 13 mph ()    
Max Wind Speed 23 mph    
Max Gust Speed 36 mph    
Visibility 5.1 miles    
Events Rain    
Averages and records for this station are not official NWS values.
T = Trace of Precipitation, MM = Missing Value Source: Averaged Metar Reports

Daily Weather History Graph

Daily Weather History Graph

Search for Another Location

Airport or City:

Astronomy

Dec. 07, 2018 Rise Set
Actual Time 6:27 AM IST 4:35 PM IST
Civil Twilight 6:00 AM IST 5:02 PM IST
Nautical Twilight 5:30 AM IST 5:33 PM IST
Astronomical Twilight 5:00 AM IST 6:02 PM IST
Moon 6:17 AM IST (12/7) 4:56 PM IST (12/7)
Length of Visible Light 11h 01m
Length of Day
10h 08m
New Moon, 0% of the Moon is Illuminated
Dec 7
New Moon
Dec 15
First Quarter
Dec 22
Full
Dec 29
Last Quarter
Jan 6
New

Hourly Weather History & Observations

Time (IST) Temp. Dew Point Humidity Pressure Visibility Wind Dir Wind Speed Gust Speed Precip Events Conditions
12:20 AM 55.4 °F 53.6 °F 94% 29.83 in 6.2 mi West 8.1 mph - N/A Rain Rain
12:50 AM 57.2 °F 53.6 °F 88% 29.83 in 6.2 mi SW 12.7 mph - N/A Rain Rain
1:20 AM 55.4 °F 51.8 °F 88% 29.83 in 6.2 mi SSW 10.4 mph - N/A   Scattered Clouds
1:50 AM 55.4 °F 53.6 °F 94% 29.83 in 6.2 mi SSE 9.2 mph - N/A Rain Rain
2:20 AM 55.4 °F 53.6 °F 94% 29.80 in 6.2 mi South 12.7 mph - N/A Rain Rain
2:50 AM 57.2 °F 53.6 °F 88% 29.80 in 6.2 mi SSW 21.9 mph 35.7 mph N/A Rain Rain
3:20 AM 57.2 °F 51.8 °F 82% 29.80 in 6.2 mi South 16.1 mph - N/A   Scattered Clouds
3:50 AM 57.2 °F 53.6 °F 88% 29.80 in 6.2 mi South 17.3 mph - N/A   Scattered Clouds
4:20 AM 57.2 °F 51.8 °F 82% 29.80 in 6.2 mi SSW 13.8 mph - N/A Rain Light Rain
4:50 AM 55.4 °F 53.6 °F 94% 29.80 in 1.9 mi South 17.3 mph - N/A Rain Rain Showers
5:00 AM 55 °F 53 °F 91% 29.82 in 2 mi South 13.4 mph - - Rain Heavy Rain Showers
5:20 AM 55.4 °F 51.8 °F 88% 29.80 in 6.2 mi South 11.5 mph - N/A Rain Rain
5:50 AM 53.6 °F 53.6 °F 100% 29.83 in 5.0 mi SSW 16.1 mph - N/A Rain Rain
6:20 AM 55.4 °F 53.6 °F 94% 29.83 in 1.9 mi South 16.1 mph - N/A Rain Rain Showers
6:50 AM 53.6 °F 53.6 °F 100% 29.83 in 4.3 mi South 15.0 mph - N/A Rain Rain
7:20 AM 55.4 °F 51.8 °F 88% 29.83 in 1.9 mi South 15.0 mph - N/A Rain Rain Showers
7:50 AM 55.4 °F 51.8 °F 88% 29.86 in 3.1 mi SW 5.8 mph - N/A Rain Heavy Rain
8:20 AM 53.6 °F 51.8 °F 94% 29.89 in 1.2 mi South 16.1 mph - N/A Rain Heavy Rain
8:50 AM 55.4 °F 51.8 °F 88% 29.89 in 3.1 mi South 18.4 mph - N/A Rain Rain
9:20 AM 55.4 °F 51.8 °F 88% 29.89 in 4.3 mi South 16.1 mph - N/A   Mostly Cloudy
9:50 AM 55.4 °F 53.6 °F 94% 29.89 in 4.3 mi South 15.0 mph - N/A Rain Rain
10:20 AM 55.4 °F 53.6 °F 94% 29.89 in 2.5 mi South 18.4 mph - N/A Rain Rain
10:50 AM 57.2 °F 53.6 °F 88% 29.89 in 5.0 mi South 12.7 mph - N/A   Mostly Cloudy
11:00 AM 58 °F 54 °F 84% 29.88 in - SSW 13.4 mph - -  
11:20 AM 59.0 °F 55.4 °F 88% 29.89 in 2.5 mi SSW 13.8 mph - N/A Rain Rain
11:50 AM 59.0 °F 55.4 °F 88% 29.89 in 2.5 mi SSW 13.8 mph - N/A Rain Rain
12:20 PM 59.0 °F 55.4 °F 88% 29.86 in 4.3 mi South 10.4 mph - N/A Rain Rain
12:50 PM 59.0 °F 53.6 °F 82% 29.86 in 4.3 mi South 10.4 mph - N/A Rain Light Rain
1:20 PM 62.6 °F 53.6 °F 72% 29.86 in 6.2 mi SW 23.0 mph - N/A   Mostly Cloudy
1:50 PM 60.8 °F 53.6 °F 77% 29.86 in 5.0 mi SW 18.4 mph - N/A Rain Rain
2:20 PM 59.0 °F 55.4 °F 88% 29.86 in 5.6 mi SSW 16.1 mph - N/A Rain Light Rain
2:50 PM 62.6 °F 53.6 °F 72% 29.86 in 6.2 mi South 12.7 mph - N/A   Scattered Clouds
3:20 PM 62.6 °F 51.8 °F 68% 29.86 in 6.2 mi SW 19.6 mph - N/A   Scattered Clouds
3:50 PM 62.6 °F 51.8 °F 68% 29.86 in 6.2 mi SW 18.4 mph - N/A   Mostly Cloudy
4:20 PM 62.6 °F 51.8 °F 68% 29.89 in 6.2 mi SW 18.4 mph - N/A Rain Light Rain
4:50 PM 59.0 °F 53.6 °F 82% 29.89 in 4.3 mi SW 17.3 mph - N/A Rain Rain
5:00 PM 59 °F 54 °F 77% 29.90 in 4 mi SSW 11.2 mph - - Rain Heavy Rain
5:20 PM 60.8 °F 53.6 °F 77% 29.89 in 6.2 mi SSW 13.8 mph - N/A   Scattered Clouds
5:50 PM 59.0 °F 55.4 °F 88% 29.92 in 6.2 mi SW 13.8 mph - N/A Rain Rain
6:20 PM 59.0 °F 53.6 °F 82% 29.92 in 6.2 mi SSW 13.8 mph - N/A Rain Light Rain
6:50 PM 60.8 °F 53.6 °F 77% 29.92 in 6.2 mi South 10.4 mph - N/A   Scattered Clouds
7:50 PM 60.8 °F 53.6 °F 77% 29.92 in 6.2 mi SSW 16.1 mph - N/A   Mostly Cloudy
8:00 PM 61 °F 54 °F 70% 29.94 in 6 mi SSW 15.7 mph - -   Partly Cloudy
8:20 PM 59.0 °F 55.4 °F 88% 29.92 in 6.2 mi South 17.3 mph - N/A Rain Light Rain
8:50 PM 57.2 °F 55.4 °F 94% 29.95 in 6.2 mi South 11.5 mph - N/A Rain Light Rain
9:20 PM 57.2 °F 55.4 °F 94% 29.92 in 6.2 mi SSE 10.4 mph - N/A Rain Light Rain
9:50 PM 60.8 °F 53.6 °F 77% 29.92 in 6.2 mi South 9.2 mph - N/A Rain Light Rain
10:20 PM 60.8 °F 53.6 °F 77% 29.95 in 6.2 mi South 10.4 mph - N/A Rain Light Rain
10:50 PM 57.2 °F 53.6 °F 88% 29.95 in 6.2 mi South 12.7 mph - N/A Rain Light Rain
11:00 PM 57 °F 53 °F 80% 29.96 in 6 mi SSW 6.7 mph - -   Partly Cloudy
11:20 PM 57.2 °F 51.8 °F 82% 29.95 in 6.2 mi South 11.5 mph - N/A Rain Light Rain
11:50 PM 55.4 °F 51.8 °F 88% 29.95 in 5.6 mi South 13.8 mph - N/A Rain Rain